source: subversion/applications/editors/osm-editor/different_type_paths.gpx @ 30277

Last change on this file since 30277 was 664, checked in by nick, 14 years ago

Changed save/load to always 'OSM' mode; changed example GPX files

File size: 26.3 KB
Line 
1<!-- This data is copyright Nick Whitelegg and licenced under the
2     Creative Commons Licence (Attribution/ShareAlike) v2.0. -->
3<gpx version="1.0" creator="Hogweed Software Freemap::Components class" xmlns="http://www.topografix.com/GPX/1/0">
4<wpt lat="50.827" lon="-1.62608">
5<name>001</name>
6<type>bridge</type>
7</wpt>
8<wpt lat="50.8208" lon="-1.60777">
9<name>633:Whitemoor</name>
10<type>car park</type>
11</wpt>
12<wpt lat="50.8487" lon="-1.60476">
13<name>1044:BOG2</name>
14<type>caution</type>
15</wpt>
16<wpt lat="50.8421" lon="-1.59725">
17<name>1029:014</name>
18<type>bridge</type>
19</wpt>
20<wpt lat="50.8496" lon="-1.5911">
21<name>1028:013</name>
22<type>bridge</type>
23</wpt>
24<wpt lat="50.8433" lon="-1.59724">
25<name>1059:Deer sanctuary</name>
26<type>point of interest</type>
27</wpt>
28<wpt lat="50.8395" lon="-1.59255">
29<name>1076:010</name>
30<type>bridge</type>
31</wpt>
32<wpt lat="50.8351" lon="-1.60184">
33<name>1077:011</name>
34<type>bridge</type>
35</wpt>
36<wpt lat="50.8311" lon="-1.60236">
37<name>1078:012</name>
38<type>bridge</type>
39</wpt>
40<wpt lat="50.8273" lon="-1.60239">
41<name>1079:013</name>
42<type>bridge</type>
43</wpt>
44<wpt lat="50.8292" lon="-1.60236">
45<name>1081:Aldridge Hill Cottage</name>
46<type>farm</type>
47</wpt>
48<wpt lat="50.8228" lon="-1.59824">
49<name>1082:Beachern Wood</name>
50<type>car park</type>
51</wpt>
52<wpt lat="50.8378" lon="-1.60949">
53<name>1085:FEORD</name>
54<type>caution</type>
55</wpt>
56<wpt lat="50.8352" lon="-1.60295">
57<name>1088:Red Deer</name>
58<type>point of interest</type>
59</wpt>
60<wpt lat="50.8226" lon="-1.61197">
61<name></name>
62<type>car park</type>
63</wpt>
64<wpt lat="50.8317" lon="-1.62619">
65<name> </name>
66<type>farm</type>
67</wpt>
68<trk>
69<number>5216</number>
70<extensions>
71<property key="foot" value="yes"/>
72<property key="horse" value="no"/>
73<property key="bike" value="no"/>
74<property key="car" value="no"/>
75<property key="class" value="path"/>
76</extensions>
77<trkseg>
78<trkpt lat="50.84192946" lon="-1.597334585">
79<time></time>
80</trkpt>
81<trkpt lat="50.84238016" lon="-1.597629002">
82<time></time>
83</trkpt>
84<trkpt lat="50.84338589" lon="-1.599793694">
85<time></time>
86</trkpt>
87<trkpt lat="50.84412071" lon="-1.601648273">
88<time></time>
89</trkpt>
90<trkpt lat="50.84439999" lon="-1.601787947">
91<time></time>
92</trkpt>
93<trkpt lat="50.84497735" lon="-1.602308629">
94<time></time>
95</trkpt>
96<trkpt lat="50.84673684" lon="-1.603998375">
97<time></time>
98</trkpt>
99<trkpt lat="50.84765575" lon="-1.604459398">
100<time></time>
101</trkpt>
102<trkpt lat="50.84808704" lon="-1.604342101">
103<time></time>
104</trkpt>
105<trkpt lat="50.8490335" lon="-1.60497339">
106<time></time>
107</trkpt>
108<trkpt lat="50.84916085" lon="-1.605398513">
109<time></time>
110</trkpt>
111<trkpt lat="50.84944074" lon="-1.605722905">
112<time></time>
113</trkpt>
114<trkpt lat="50.84944074" lon="-1.605722905">
115<time></time>
116</trkpt>
117<trkpt lat="50.84982957" lon="-1.606344727">
118<time></time>
119</trkpt>
120<trkpt lat="50.85057611" lon="-1.606366857">
121<time></time>
122</trkpt>
123<trkpt lat="50.85085691" lon="-1.606961193">
124<time></time>
125</trkpt>
126<trkpt lat="50.85182459" lon="-1.608558499">
127<time></time>
128</trkpt>
129<trkpt lat="50.85261571" lon="-1.608466631">
130<time></time>
131</trkpt>
132<trkpt lat="50.85334555" lon="-1.608872549">
133<time></time>
134</trkpt>
135<trkpt lat="50.85354054" lon="-1.608018442">
136<time></time>
137</trkpt>
138<trkpt lat="50.8542039" lon="-1.607373515">
139<time></time>
140</trkpt>
141<trkpt lat="50.85461476" lon="-1.606531778">
142<time></time>
143</trkpt>
144<trkpt lat="50.85523449" lon="-1.60628502">
145<time></time>
146</trkpt>
147<trkpt lat="50.85581665" lon="-1.605569686">
148<time></time>
149</trkpt>
150<trkpt lat="50.8555369" lon="-1.605287875">
151<time></time>
152</trkpt>
153<trkpt lat="50.85562481" lon="-1.604690373">
154<time></time>
155</trkpt>
156<trkpt lat="50.85654035" lon="-1.604156906">
157<time></time>
158</trkpt>
159<trkpt lat="50.85723056" lon="-1.603483237">
160<time></time>
161</trkpt>
162<trkpt lat="50.8578746" lon="-1.602454708">
163<time></time>
164</trkpt>
165<trkpt lat="50.85832431" lon="-1.602465094">
166<time></time>
167</trkpt>
168<trkpt lat="50.85849402" lon="-1.602122625">
169<time></time>
170</trkpt>
171<trkpt lat="50.86025374" lon="-1.60124084">
172<time></time>
173</trkpt>
174<trkpt lat="50.8594407" lon="-1.600182045">
175<time></time>
176</trkpt>
177<trkpt lat="50.85976139" lon="-1.599284083">
178<time></time>
179</trkpt>
180</trkseg>
181</trk>
182<trk>
183<number>5232</number>
184<extensions>
185<property key="foot" value="yes"/>
186<property key="horse" value="no"/>
187<property key="bike" value="no"/>
188<property key="car" value="no"/>
189<property key="class" value="path"/>
190</extensions>
191<trkseg>
192<trkpt lat="50.83634059" lon="-1.588491778">
193<time></time>
194</trkpt>
195<trkpt lat="50.83710807" lon="-1.589351409">
196<time></time>
197</trkpt>
198<trkpt lat="50.83745236" lon="-1.590072743">
199<time></time>
200</trkpt>
201<trkpt lat="50.83801184" lon="-1.590607564">
202<time></time>
203</trkpt>
204<trkpt lat="50.8389714" lon="-1.592388812">
205<time></time>
206</trkpt>
207<trkpt lat="50.83968385" lon="-1.592950754">
208<time></time>
209</trkpt>
210<trkpt lat="50.84075331" lon="-1.595313528">
211<time></time>
212</trkpt>
213<trkpt lat="50.84170203" lon="-1.596583712">
214<time></time>
215</trkpt>
216<trkpt lat="50.84204667" lon="-1.597418803">
217<time></time>
218</trkpt>
219</trkseg>
220</trk>
221<trk>
222<number>5234</number>
223<extensions>
224<property key="foot" value="yes"/>
225<property key="horse" value="no"/>
226<property key="bike" value="no"/>
227<property key="car" value="no"/>
228<property key="class" value="path"/>
229</extensions>
230<trkseg>
231<trkpt lat="50.83691162" lon="-1.610756889">
232<time></time>
233</trkpt>
234<trkpt lat="50.83586237" lon="-1.608961891">
235<time></time>
236</trkpt>
237<trkpt lat="50.83543592" lon="-1.607843462">
238<time></time>
239</trkpt>
240<trkpt lat="50.8356685" lon="-1.602160508">
241<time></time>
242</trkpt>
243<trkpt lat="50.83490325" lon="-1.601925575">
244<time></time>
245</trkpt>
246<trkpt lat="50.83490325" lon="-1.601925575">
247<time></time>
248</trkpt>
249<trkpt lat="50.83421159" lon="-1.602172894">
250<time></time>
251</trkpt>
252<trkpt lat="50.83075868" lon="-1.602358456">
253<time></time>
254</trkpt>
255<trkpt lat="50.82978803" lon="-1.602551312">
256<time></time>
257</trkpt>
258<trkpt lat="50.82882517" lon="-1.602389083">
259<time></time>
260</trkpt>
261<trkpt lat="50.82880704" lon="-1.602346636">
262<time></time>
263</trkpt>
264<trkpt lat="50.82749275" lon="-1.601988601">
265<time></time>
266</trkpt>
267<trkpt lat="50.8273052" lon="-1.602373595">
268<time></time>
269</trkpt>
270<trkpt lat="50.8260543" lon="-1.602142827">
271<time></time>
272</trkpt>
273<trkpt lat="50.82445218" lon="-1.601773068">
274<time></time>
275</trkpt>
276<trkpt lat="50.82380302" lon="-1.601295827">
277<time></time>
278</trkpt>
279</trkseg>
280</trk>
281<trk>
282<number>5120</number>
283<extensions>
284<property key="foot" value="yes"/>
285<property key="horse" value="no"/>
286<property key="bike" value="no"/>
287<property key="car" value="no"/>
288<property key="class" value="path"/>
289</extensions>
290<trkseg>
291<trkpt lat="50.81850299" lon="-1.613834586">
292<time></time>
293</trkpt>
294<trkpt lat="50.81829934" lon="-1.612090005">
295<time></time>
296</trkpt>
297<trkpt lat="50.81749574" lon="-1.608448034">
298<time></time>
299</trkpt>
300<trkpt lat="50.81509802" lon="-1.606835512">
301<time></time>
302</trkpt>
303<trkpt lat="50.81430114" lon="-1.605223855">
304<time></time>
305</trkpt>
306<trkpt lat="50.81410127" lon="-1.604629309">
307<time></time>
308</trkpt>
309</trkseg>
310</trk>
311<trk>
312<number>5119</number>
313<extensions>
314<property key="foot" value="yes"/>
315<property key="horse" value="no"/>
316<property key="bike" value="no"/>
317<property key="car" value="no"/>
318<property key="class" value="path"/>
319</extensions>
320<trkseg>
321<trkpt lat="50.80960165" lon="-1.628400667">
322<time></time>
323</trkpt>
324<trkpt lat="50.81049696" lon="-1.629954999">
325<time></time>
326</trkpt>
327<trkpt lat="50.8109969" lon="-1.631626062">
328<time></time>
329</trkpt>
330<trkpt lat="50.81129909" lon="-1.633341293">
331<time></time>
332</trkpt>
333<trkpt lat="50.81179867" lon="-1.634913056">
334<time></time>
335</trkpt>
336<trkpt lat="50.81269938" lon="-1.635346096">
337<time></time>
338</trkpt>
339<trkpt lat="50.8141044" lon="-1.633120586">
340<time></time>
341</trkpt>
342<trkpt lat="50.81449635" lon="-1.631925044">
343<time></time>
344</trkpt>
345<trkpt lat="50.81589675" lon="-1.625454627">
346<time></time>
347</trkpt>
348<trkpt lat="50.81660147" lon="-1.623660203">
349<time></time>
350</trkpt>
351<trkpt lat="50.81759648" lon="-1.622644218">
352<time></time>
353</trkpt>
354<trkpt lat="50.81849993" lon="-1.621132023">
355<time></time>
356</trkpt>
357<trkpt lat="50.81909741" lon="-1.619565466">
358<time></time>
359</trkpt>
360</trkseg>
361</trk>
362<trk>
363<number>5102</number>
364<extensions>
365<property key="foot" value="yes"/>
366<property key="horse" value="no"/>
367<property key="bike" value="no"/>
368<property key="car" value="no"/>
369<property key="class" value="path"/>
370</extensions>
371<trkseg>
372<trkpt lat="50.81930193" lon="-1.592247725">
373<time></time>
374</trkpt>
375<trkpt lat="50.81930221" lon="-1.589763152">
376<time></time>
377</trkpt>
378<trkpt lat="50.81950406" lon="-1.588341622">
379<time></time>
380</trkpt>
381<trkpt lat="50.8194999" lon="-1.587163256">
382<time></time>
383</trkpt>
384<trkpt lat="50.81859953" lon="-1.584345924">
385<time></time>
386</trkpt>
387<trkpt lat="50.81800278" lon="-1.583456801">
388<time></time>
389</trkpt>
390</trkseg>
391</trk>
392<trk>
393<number>5101</number>
394<extensions>
395<property key="foot" value="yes"/>
396<property key="horse" value="no"/>
397<property key="bike" value="no"/>
398<property key="car" value="no"/>
399<property key="class" value="path"/>
400</extensions>
401<trkseg>
402<trkpt lat="50.81789833" lon="-1.592075386">
403<time></time>
404</trkpt>
405<trkpt lat="50.8189965" lon="-1.592349768">
406<time></time>
407</trkpt>
408<trkpt lat="50.81930193" lon="-1.592247725">
409<time></time>
410</trkpt>
411</trkseg>
412</trk>
413<trk>
414<number>5099</number>
415<extensions>
416<property key="foot" value="yes"/>
417<property key="horse" value="no"/>
418<property key="bike" value="no"/>
419<property key="car" value="no"/>
420<property key="class" value="path"/>
421</extensions>
422<trkseg>
423<trkpt lat="50.81789833" lon="-1.592075386">
424<time></time>
425</trkpt>
426</trkseg>
427</trk>
428<trk>
429<number>5098</number>
430<extensions>
431<property key="foot" value="yes"/>
432<property key="horse" value="no"/>
433<property key="bike" value="no"/>
434<property key="car" value="no"/>
435<property key="class" value="path"/>
436</extensions>
437<trkseg>
438<trkpt lat="50.8220997" lon="-1.597647147">
439<time></time>
440</trkpt>
441<trkpt lat="50.8195972" lon="-1.596987166">
442<time></time>
443</trkpt>
444<trkpt lat="50.81900408" lon="-1.597120048">
445<time></time>
446</trkpt>
447<trkpt lat="50.81849942" lon="-1.596826247">
448<time></time>
449</trkpt>
450<trkpt lat="50.81770359" lon="-1.595555363">
451<time></time>
452</trkpt>
453<trkpt lat="50.8174036" lon="-1.594635151">
454<time></time>
455</trkpt>
456<trkpt lat="50.81789833" lon="-1.592075386">
457<time></time>
458</trkpt>
459</trkseg>
460</trk>
461<trk>
462<number>5097</number>
463<extensions>
464<property key="foot" value="yes"/>
465<property key="horse" value="no"/>
466<property key="bike" value="no"/>
467<property key="car" value="no"/>
468<property key="class" value="path"/>
469</extensions>
470<trkseg>
471<trkpt lat="50.81489961" lon="-1.637202862">
472<time></time>
473</trkpt>
474<trkpt lat="50.817704" lon="-1.636684237">
475<time></time>
476</trkpt>
477<trkpt lat="50.8193003" lon="-1.635223702">
478<time></time>
479</trkpt>
480<trkpt lat="50.8206037" lon="-1.632146794">
481<time></time>
482</trkpt>
483<trkpt lat="50.8208044" lon="-1.630200092">
484<time></time>
485</trkpt>
486<trkpt lat="50.82000078" lon="-1.626373047">
487<time></time>
488</trkpt>
489<trkpt lat="50.82029788" lon="-1.623673086">
490<time></time>
491</trkpt>
492<trkpt lat="50.8195968" lon="-1.621023764">
493<time></time>
494</trkpt>
495<trkpt lat="50.8190007" lon="-1.620247729">
496<time></time>
497</trkpt>
498<trkpt lat="50.81920445" lon="-1.619294843">
499<time></time>
500</trkpt>
501<trkpt lat="50.81840364" lon="-1.616433506">
502<time></time>
503</trkpt>
504<trkpt lat="50.8183991" lon="-1.615056408">
505<time></time>
506</trkpt>
507<trkpt lat="50.81860328" lon="-1.614245482">
508<time></time>
509</trkpt>
510<trkpt lat="50.81850191" lon="-1.613508057">
511<time></time>
512</trkpt>
513<trkpt lat="50.8202998" lon="-1.610554262">
514<time></time>
515</trkpt>
516<trkpt lat="50.82109988" lon="-1.607764781">
517<time></time>
518</trkpt>
519</trkseg>
520</trk>
521<trk>
522<number>5213</number>
523<extensions>
524<property key="foot" value="yes"/>
525<property key="horse" value="no"/>
526<property key="bike" value="no"/>
527<property key="car" value="no"/>
528<property key="class" value="path"/>
529</extensions>
530<trkseg>
531<trkpt lat="50.8605139" lon="-1.59842503">
532<time></time>
533</trkpt>
534<trkpt lat="50.86023574" lon="-1.598612149">
535<time></time>
536</trkpt>
537<trkpt lat="50.85992963" lon="-1.598515307">
538<time></time>
539</trkpt>
540<trkpt lat="50.85958818" lon="-1.598603498">
541<time></time>
542</trkpt>
543<trkpt lat="50.85843044" lon="-1.599309699">
544<time></time>
545</trkpt>
546<trkpt lat="50.85804582" lon="-1.599923996">
547<time></time>
548</trkpt>
549<trkpt lat="50.85776776" lon="-1.600139513">
550<time></time>
551</trkpt>
552<trkpt lat="50.85748921" lon="-1.600212941">
553<time></time>
554</trkpt>
555<trkpt lat="50.85720959" lon="-1.599973778">
556<time></time>
557</trkpt>
558<trkpt lat="50.85720798" lon="-1.599504893">
559<time></time>
560</trkpt>
561<trkpt lat="50.85658633" lon="-1.599183413">
562<time></time>
563</trkpt>
564<trkpt lat="50.85639522" lon="-1.598531446">
565<time></time>
566</trkpt>
567<trkpt lat="50.85487213" lon="-1.597606772">
568<time></time>
569</trkpt>
570<trkpt lat="50.85398603" lon="-1.596236213">
571<time></time>
572</trkpt>
573<trkpt lat="50.85269902" lon="-1.593377373">
574<time></time>
575</trkpt>
576<trkpt lat="50.85180591" lon="-1.592589523">
577<time></time>
578</trkpt>
579<trkpt lat="50.85124778" lon="-1.592438105">
580<time></time>
581</trkpt>
582<trkpt lat="50.85025524" lon="-1.591509096">
583<time></time>
584</trkpt>
585<trkpt lat="50.84950716" lon="-1.591046808">
586<time></time>
587</trkpt>
588</trkseg>
589</trk>
590<trk>
591<number>5214</number>
592<extensions>
593<property key="foot" value="yes"/>
594<property key="horse" value="yes"/>
595<property key="bike" value="yes"/>
596<property key="car" value="no"/>
597<property key="class" value="path"/>
598</extensions>
599<trkseg>
600<trkpt lat="50.84973239" lon="-1.591158493">
601<time></time>
602</trkpt>
603<trkpt lat="50.84950716" lon="-1.591046808">
604<time></time>
605</trkpt>
606<trkpt lat="50.84821723" lon="-1.589949993">
607<time></time>
608</trkpt>
609</trkseg>
610</trk>
611<trk>
612<number>5215</number>
613<extensions>
614<property key="foot" value="yes"/>
615<property key="horse" value="yes"/>
616<property key="bike" value="yes"/>
617<property key="car" value="yes"/>
618<property key="class" value="unsurfaced"/>
619</extensions>
620<trkseg>
621<trkpt lat="50.84821723" lon="-1.589949993">
622<time></time>
623</trkpt>
624<trkpt lat="50.84820084" lon="-1.590404739">
625<time></time>
626</trkpt>
627<trkpt lat="50.84804314" lon="-1.591599447">
628<time></time>
629</trkpt>
630<trkpt lat="50.84807231" lon="-1.592224268">
631<time></time>
632</trkpt>
633<trkpt lat="50.84789512" lon="-1.59299295">
634<time></time>
635</trkpt>
636<trkpt lat="50.84738532" lon="-1.593807132">
637<time></time>
638</trkpt>
639<trkpt lat="50.84615532" lon="-1.594414452">
640<time></time>
641</trkpt>
642<trkpt lat="50.84576801" lon="-1.594247343">
643<time></time>
644</trkpt>
645<trkpt lat="50.84542484" lon="-1.593838361">
646<time></time>
647</trkpt>
648<trkpt lat="50.84427221" lon="-1.593422215">
649<time></time>
650</trkpt>
651<trkpt lat="50.84192946" lon="-1.597334585">
652<time></time>
653</trkpt>
654</trkseg>
655</trk>
656<trk>
657<number>5233</number>
658<extensions>
659<property key="foot" value="yes"/>
660<property key="horse" value="yes"/>
661<property key="bike" value="yes"/>
662<property key="car" value="yes"/>
663<property key="class" value="unsurfaced"/>
664</extensions>
665<trkseg>
666<trkpt lat="50.84204667" lon="-1.597418803">
667<time></time>
668</trkpt>
669<trkpt lat="50.84219604" lon="-1.599008421">
670<time></time>
671</trkpt>
672<trkpt lat="50.84236396" lon="-1.600768346">
673<time></time>
674</trkpt>
675<trkpt lat="50.84227854" lon="-1.602090095">
676<time></time>
677</trkpt>
678<trkpt lat="50.84215563" lon="-1.602971818">
679<time></time>
680</trkpt>
681<trkpt lat="50.84204522" lon="-1.604890355">
682<time></time>
683</trkpt>
684<trkpt lat="50.84171973" lon="-1.612421408">
685<time></time>
686</trkpt>
687<trkpt lat="50.84030386" lon="-1.611254213">
688<time></time>
689</trkpt>
690<trkpt lat="50.84030386" lon="-1.611254213">
691<time></time>
692</trkpt>
693<trkpt lat="50.83972857" lon="-1.611344215">
694<time></time>
695</trkpt>
696<trkpt lat="50.83972857" lon="-1.611344215">
697<time></time>
698</trkpt>
699<trkpt lat="50.83869797" lon="-1.609747788">
700<time></time>
701</trkpt>
702<trkpt lat="50.83796842" lon="-1.609427199">
703<time></time>
704</trkpt>
705<trkpt lat="50.83764509" lon="-1.609557726">
706<time></time>
707</trkpt>
708<trkpt lat="50.83691162" lon="-1.610756889">
709<time></time>
710</trkpt>
711<trkpt lat="50.83687305" lon="-1.611599922">
712<time>2005-10-16T11:44:56Z</time>
713</trkpt>
714</trkseg>
715</trk>
716<trk>
717<number>5235</number>
718<extensions>
719<property key="foot" value="yes"/>
720<property key="horse" value="yes"/>
721<property key="bike" value="yes"/>
722<property key="car" value="yes"/>
723<property key="class" value="unsurfaced"/>
724</extensions>
725<trkseg>
726<trkpt lat="50.82380302" lon="-1.601295827">
727<time></time>
728</trkpt>
729<trkpt lat="50.82315773" lon="-1.599327701">
730<time></time>
731</trkpt>
732<trkpt lat="50.82283935" lon="-1.598279728">
733<time></time>
734</trkpt>
735<trkpt lat="50.82283935" lon="-1.598279728">
736<time></time>
737</trkpt>
738<trkpt lat="50.82242995" lon="-1.596920185">
739<time></time>
740</trkpt>
741</trkseg>
742</trk>
743<trk>
744<number>555123</number>
745<name>Rhinefield Road</name>
746<extensions>
747<property key="foot" value="yes"/>
748<property key="horse" value="yes"/>
749<property key="bike" value="yes"/>
750<property key="car" value="yes"/>
751<property key="class" value="minor"/>
752</extensions>
753<trkseg>
754<trkpt lat="50.82242995" lon="-1.596920185">
755<time></time>
756</trkpt>
757<trkpt lat="50.82286487" lon="-1.595255201">
758<time></time>
759</trkpt>
760<trkpt lat="50.82309742" lon="-1.594884024">
761<time></time>
762</trkpt>
763<trkpt lat="50.82330901" lon="-1.593661099">
764<time></time>
765</trkpt>
766<trkpt lat="50.82331474" lon="-1.592723931">
767<time></time>
768</trkpt>
769<trkpt lat="50.82305036" lon="-1.591703925">
770<time></time>
771</trkpt>
772<trkpt lat="50.82305592" lon="-1.590724167">
773<time></time>
774</trkpt>
775<trkpt lat="50.82290129" lon="-1.590228567">
776<time></time>
777</trkpt>
778<trkpt lat="50.82292388" lon="-1.588978888">
779<time></time>
780</trkpt>
781<trkpt lat="50.82294308" lon="-1.586777927">
782<time></time>
783</trkpt>
784<trkpt lat="50.8223715" lon="-1.582849992">
785<time></time>
786</trkpt>
787<trkpt lat="50.82127302" lon="-1.579991753">
788<time></time>
789</trkpt>
790<trkpt lat="50.82028182" lon="-1.579461127">
791<time></time>
792</trkpt>
793<trkpt lat="50.81936532" lon="-1.57969652">
794<time></time>
795</trkpt>
796</trkseg>
797</trk>
798<trk>
799<number>505048</number>
800<extensions>
801<property key="foot" value="yes"/>
802<property key="horse" value="yes"/>
803<property key="bike" value="yes"/>
804<property key="car" value="yes"/>
805<property key="class" value="minor"/>
806</extensions>
807<trkseg>
808<trkpt lat="50.81939981" lon="-1.57928448">
809<time></time>
810</trkpt>
811<trkpt lat="50.81849685" lon="-1.580783311">
812<time></time>
813</trkpt>
814<trkpt lat="50.81780183" lon="-1.582592565">
815<time></time>
816</trkpt>
817<trkpt lat="50.81740291" lon="-1.584214577">
818<time></time>
819</trkpt>
820<trkpt lat="50.81650396" lon="-1.586863146">
821<time></time>
822</trkpt>
823<trkpt lat="50.81630444" lon="-1.588937616">
824<time></time>
825</trkpt>
826<trkpt lat="50.81610363" lon="-1.590657166">
827<time></time>
828</trkpt>
829<trkpt lat="50.81560207" lon="-1.593827354">
830<time></time>
831</trkpt>
832<trkpt lat="50.81470394" lon="-1.596773748">
833<time></time>
834</trkpt>
835<trkpt lat="50.81339772" lon="-1.60138442">
836<time></time>
837</trkpt>
838<trkpt lat="50.81289563" lon="-1.604483336">
839<time></time>
840</trkpt>
841<trkpt lat="50.8122013" lon="-1.606604313">
842<time></time>
843</trkpt>
844<trkpt lat="50.81129584" lon="-1.607463626">
845<time></time>
846</trkpt>
847<trkpt lat="50.81080242" lon="-1.613216723">
848<time></time>
849</trkpt>
850<trkpt lat="50.81109646" lon="-1.617841883">
851<time></time>
852</trkpt>
853<trkpt lat="50.81090338" lon="-1.624855786">
854<time></time>
855</trkpt>
856<trkpt lat="50.8111964" lon="-1.626485873">
857<time></time>
858</trkpt>
859<trkpt lat="50.81110414" lon="-1.628573282">
860<time></time>
861</trkpt>
862<trkpt lat="50.81139725" lon="-1.630245984">
863<time></time>
864</trkpt>
865<trkpt lat="50.81130437" lon="-1.632163057">
866<time></time>
867</trkpt>
868<trkpt lat="50.81089679" lon="-1.634110972">
869<time></time>
870</trkpt>
871<trkpt lat="50.81049853" lon="-1.636172339">
872<time></time>
873</trkpt>
874<trkpt lat="50.80859648" lon="-1.637649125">
875<time></time>
876</trkpt>
877</trkseg>
878</trk>
879<trk>
880<number>505016</number>
881<extensions>
882<property key="foot" value="yes"/>
883<property key="horse" value="yes"/>
884<property key="bike" value="yes"/>
885<property key="car" value="yes"/>
886<property key="class" value="minor"/>
887</extensions>
888<trkseg>
889<trkpt lat="50.82109988" lon="-1.607764781">
890<time></time>
891</trkpt>
892<trkpt lat="50.82089855" lon="-1.60407498">
893<time></time>
894</trkpt>
895<trkpt lat="50.8208958" lon="-1.603265715">
896<time></time>
897</trkpt>
898<trkpt lat="50.82210268" lon="-1.598513223">
899<time></time>
900</trkpt>
901<trkpt lat="50.8220997" lon="-1.597647147">
902<time></time>
903</trkpt>
904</trkseg>
905</trk>
906<trk>
907<number>0</number>
908<extensions>
909<property key="foot" value="yes"/>
910<property key="horse" value="no"/>
911<property key="bike" value="no"/>
912<property key="car" value="no"/>
913<property key="class" value="path"/>
914</extensions>
915<trkseg>
916<trkpt lat="50.82095146" lon="-1.629731655">
917<time>2005-10-16T10:57:51Z</time>
918</trkpt>
919<trkpt lat="50.82135916" lon="-1.630911827">
920<time>2005-10-16T10:59:11Z</time>
921</trkpt>
922<trkpt lat="50.82307577" lon="-1.629753113">
923<time>2005-10-16T11:02:01Z</time>
924</trkpt>
925<trkpt lat="50.82350492" lon="-1.629838943">
926<time>2005-10-16T11:02:41Z</time>
927</trkpt>
928<trkpt lat="50.8237195" lon="-1.629817486">
929<time>2005-10-16T11:03:02Z</time>
930</trkpt>
931<trkpt lat="50.82397699" lon="-1.62968874">
932<time>2005-10-16T11:03:40Z</time>
933</trkpt>
934<trkpt lat="50.8253932" lon="-1.628358364">
935<time>2005-10-16T11:06:22Z</time>
936</trkpt>
937<trkpt lat="50.82601547" lon="-1.627070904">
938<time>2005-10-16T11:07:59Z</time>
939</trkpt>
940<trkpt lat="50.82738876" lon="-1.62571907">
941<time>2005-10-16T11:10:25Z</time>
942</trkpt>
943<trkpt lat="50.82758188" lon="-1.625697613">
944<time>2005-10-16T11:10:45Z</time>
945</trkpt>
946<trkpt lat="50.83045721" lon="-1.627221107">
947<time>2005-10-16T11:15:01Z</time>
948</trkpt>
949<trkpt lat="50.83058596" lon="-1.626877785">
950<time>2005-10-16T11:16:37Z</time>
951</trkpt>
952<trkpt lat="50.83116531" lon="-1.626598835">
953<time>2005-10-16T11:17:48Z</time>
954</trkpt>
955<trkpt lat="50.83170176" lon="-1.627070904">
956<time>2005-10-16T11:19:01Z</time>
957</trkpt>
958<trkpt lat="50.83262444" lon="-1.627542973">
959<time>2005-10-16T11:20:24Z</time>
960</trkpt>
961<trkpt lat="50.83262444" lon="-1.627542973">
962<time>2005-10-16T11:20:26Z</time>
963</trkpt>
964<trkpt lat="50.83380461" lon="-1.628100872">
965<time>2005-10-16T11:22:38Z</time>
966</trkpt>
967<trkpt lat="50.83412647" lon="-1.627929211">
968<time>2005-10-16T11:23:03Z</time>
969</trkpt>
970<trkpt lat="50.83438396" lon="-1.627500057">
971<time>2005-10-16T11:23:40Z</time>
972</trkpt>
973<trkpt lat="50.83455563" lon="-1.626598835">
974<time>2005-10-16T11:24:30Z</time>
975</trkpt>
976<trkpt lat="50.83513498" lon="-1.625418663">
977<time>2005-10-16T11:26:08Z</time>
978</trkpt>
979<trkpt lat="50.83489895" lon="-1.625139713">
980<time>2005-10-16T11:27:24Z</time>
981</trkpt>
982</trkseg>
983</trk>
984<trk>
985<number>0</number>
986<extensions>
987<property key="foot" value="yes"/>
988<property key="horse" value="no"/>
989<property key="bike" value="no"/>
990<property key="car" value="no"/>
991<property key="class" value="path"/>
992</extensions>
993<trkseg>
994<trkpt lat="50.83687305" lon="-1.62350893">
995<time>2005-10-16T11:31:02Z</time>
996</trkpt>
997<trkpt lat="50.8368516" lon="-1.623036861">
998<time>2005-10-16T11:31:34Z</time>
999</trkpt>
1000<trkpt lat="50.83674431" lon="-1.622436047">
1001<time>2005-10-16T11:32:21Z</time>
1002</trkpt>
1003<trkpt lat="50.83650827" lon="-1.620311737">
1004<time>2005-10-16T11:34:24Z</time>
1005</trkpt>
1006<trkpt lat="50.83650827" lon="-1.619839668">
1007<time>2005-10-16T11:34:56Z</time>
1008</trkpt>
1009<trkpt lat="50.83702326" lon="-1.617200375">
1010<time>2005-10-16T11:37:34Z</time>
1011</trkpt>
1012<trkpt lat="50.83764553" lon="-1.614561081">
1013<time>2005-10-16T11:40:08Z</time>
1014</trkpt>
1015<trkpt lat="50.8381875" lon="-1.6130625">
1016<time></time>
1017</trkpt>
1018<trkpt lat="50.83704472" lon="-1.611750126">
1019<time>2005-10-16T11:44:38Z</time>
1020</trkpt>
1021<trkpt lat="50.83687305" lon="-1.611599922">
1022<time>2005-10-16T11:44:56Z</time>
1023</trkpt>
1024</trkseg>
1025</trk>
1026<trk>
1027<number>0</number>
1028<extensions>
1029<property key="foot" value="yes"/>
1030<property key="horse" value="no"/>
1031<property key="bike" value="no"/>
1032<property key="car" value="no"/>
1033<property key="class" value="path"/>
1034</extensions>
1035<trkseg>
1036<trkpt lat="50.82732439" lon="-1.602523327">
1037<time>2005-10-16T15:34:38Z</time>
1038</trkpt>
1039<trkpt lat="50.82678795" lon="-1.603209972">
1040<time>2005-10-16T15:36:18Z</time>
1041</trkpt>
1042<trkpt lat="50.82659483" lon="-1.604304314">
1043<time>2005-10-16T15:37:13Z</time>
1044</trkpt>
1045<trkpt lat="50.82638025" lon="-1.604754925">
1046<time>2005-10-16T15:37:33Z</time>
1047</trkpt>
1048<trkpt lat="50.82603693" lon="-1.607651711">
1049<time>2005-10-16T15:40:22Z</time>
1050</trkpt>
1051<trkpt lat="50.82597256" lon="-1.608316898">
1052<time>2005-10-16T15:40:48Z</time>
1053</trkpt>
1054<trkpt lat="50.82558632" lon="-1.60848856">
1055<time>2005-10-16T15:42:03Z</time>
1056</trkpt>
1057<trkpt lat="50.82500696" lon="-1.608359814">
1058<time>2005-10-16T15:42:48Z</time>
1059</trkpt>
1060<trkpt lat="50.82449198" lon="-1.608424187">
1061<time>2005-10-16T15:43:31Z</time>
1062</trkpt>
1063<trkpt lat="50.82410574" lon="-1.608746052">
1064<time>2005-10-16T15:44:09Z</time>
1065</trkpt>
1066<trkpt lat="50.82401991" lon="-1.609067917">
1067<time>2005-10-16T15:44:29Z</time>
1068</trkpt>
1069<trkpt lat="50.82296848" lon="-1.611578465">
1070<time>2005-10-16T15:49:49Z</time>
1071</trkpt>
1072<trkpt lat="50.82296848" lon="-1.611578465">
1073<time>2005-10-16T15:50:15Z</time>
1074</trkpt>
1075<trkpt lat="50.82290411" lon="-1.611599922">
1076<time>2005-10-16T15:53:18Z</time>
1077</trkpt>
1078<trkpt lat="50.82290411" lon="-1.611599922">
1079<time>2005-10-16T15:54:00Z</time>
1080</trkpt>
1081<trkpt lat="50.82264662" lon="-1.612029076">
1082<time>2005-10-16T15:59:32Z</time>
1083</trkpt>
1084<trkpt lat="50.8223033" lon="-1.611943245">
1085<time>2005-10-16T15:59:40Z</time>
1086</trkpt>
1087</trkseg>
1088</trk>
1089<trk>
1090<number>0</number>
1091<extensions>
1092<property key="foot" value="yes"/>
1093<property key="horse" value="no"/>
1094<property key="bike" value="no"/>
1095<property key="car" value="no"/>
1096<property key="class" value="path"/>
1097</extensions>
1098<trkseg>
1099<trkpt lat="50.82232475" lon="-1.612136364">
1100<time>2005-10-16T10:36:40Z</time>
1101</trkpt>
1102<trkpt lat="50.82142353" lon="-1.612308025">
1103<time>2005-10-16T10:38:12Z</time>
1104</trkpt>
1105<trkpt lat="50.82123041" lon="-1.612887383">
1106<time>2005-10-16T10:38:54Z</time>
1107</trkpt>
1108<trkpt lat="50.82112312" lon="-1.613917351">
1109<time>2005-10-16T10:39:59Z</time>
1110</trkpt>
1111<trkpt lat="50.8207798" lon="-1.615355015">
1112<time>2005-10-16T10:41:28Z</time>
1113</trkpt>
1114<trkpt lat="50.82017899" lon="-1.616835594">
1115<time>2005-10-16T10:43:07Z</time>
1116</trkpt>
1117<trkpt lat="50.81964254" lon="-1.617715359">
1118<time>2005-10-16T10:44:26Z</time>
1119</trkpt>
1120<trkpt lat="50.81942797" lon="-1.618852615">
1121<time>2005-10-16T10:45:35Z</time>
1122</trkpt>
1123</trkseg>
1124</trk>
1125<trk>
1126<number>0</number>
1127<extensions>
1128<property key="foot" value="yes"/>
1129<property key="horse" value="yes"/>
1130<property key="bike" value="yes"/>
1131<property key="car" value="yes"/>
1132<property key="class" value="minor"/>
1133</extensions>
1134<trkseg>
1135<trkpt lat="50.83489895" lon="-1.625139713">
1136<time>2005-10-16T11:27:24Z</time>
1137</trkpt>
1138<trkpt lat="50.83509207" lon="-1.625010967">
1139<time>2005-10-16T11:28:01Z</time>
1140</trkpt>
1141<trkpt lat="50.83584309" lon="-1.624538898">
1142<time>2005-10-16T11:28:54Z</time>
1143</trkpt>
1144<trkpt lat="50.83687305" lon="-1.62350893">
1145<time>2005-10-16T11:31:02Z</time>
1146</trkpt>
1147</trkseg>
1148</trk>
1149</gpx>
Note: See TracBrowser for help on using the repository browser.